GW5006 Weather Reports


Display with metric or nautical units.
time (UTC)temp
F
wind
direction
speed
MPH
gust
MPH
rain 1hr
in
rain 24hr
in
rain mn
in
humidity
%
barometer
mb
20260505062830 50 276 1.0 2.0 0.00 0.00 0.00 57 1012.6
20260505062327 50 261 1.0 1.0 0.00 0.00 0.00 56 1012.6
20260505061824 50 277 0.0 1.0 0.00 0.00 0.00 57 1012.2
20260505061322 50 287 1.0 2.0 0.00 0.00 0.00 58 1012.5
20260505060819 50 280 1.0 1.0 0.00 0.00 0.00 58 1012.6
20260505060316 50 283 0.0 2.0 0.00 0.00 0.00 56 1012.5
20260505055812 50 277 1.0 2.0 0.00 0.00 0.00 59 1012.5
20260505055308 50 257 2.0 2.0 0.00 0.00 0.00 58 1012.5
20260505054806 50 258 2.0 2.0 0.00 0.00 0.00 57 1012.5
20260505054303 50 255 0.0 1.0 0.00 0.00 0.00 55 1012.5
20260505053801 51 290 1.0 1.0 0.00 0.00 0.00 54 1012.5
20260505053257 51 291 0.0 2.0 0.00 0.00 0.00 54 1012.6
20260505052754 51 276 1.0 2.0 0.00 0.00 0.00 55 1012.5
20260505052251 51 293 1.0 1.0 0.00 0.00 0.00 54 1012.5
20260505051748 51 277 1.0 2.0 0.00 0.00 0.00 52 1012.5
20260505051246 52 285 1.0 1.0 0.00 0.00 0.00 54 1012.6
20260505050744 52 286 1.0 2.0 0.00 0.00 0.00 54 1012.5
20260505050242 52 269 0.0 2.0 0.00 0.00 0.00 51 1012.5
20260505041712 51 269 0.0 3.0 0.00 0.00 0.00 58 1012.5
20260505041209 51 269 2.0 2.0 0.00 0.00 0.00 62 1012.5
20260505040706 52 232 0.0 2.0 0.00 0.00 0.00 60 1012.6
20260505040203 54 243 4.0 9.0 0.00 0.00 0.00 54 1012.9
20260505035700 54 280 0.0 2.0 0.00 0.00 0.00 45 1012.2
20260505035156 54 246 2.0 2.0 0.00 0.00 0.00 44 1012.2
20260505034652 55 260 2.0 2.0 0.00 0.00 0.00 44 1012.0
20260505034150 55 231 1.0 3.0 0.00 0.00 0.00 44 1011.8
20260505033646 55 262 1.0 2.0 0.00 0.00 0.00 44 1011.6
20260505033145 55 246 0.0 2.0 0.00 0.00 0.00 44 1011.7
20260505032642 55 258 2.0 2.0 0.00 0.00 0.00 43 1011.6
20260505032138 55 285 1.0 2.0 0.00 0.00 0.00 45 1011.6
20260505031636 55 251 2.0 2.0 0.00 0.00 0.00 43 1011.2
20260505031132 55 242 1.0 2.0 0.00 0.00 0.00 44 1011.1
20260505030629 55 267 1.0 2.0 0.00 0.00 0.00 44 1011.0
20260505030125 55 282 1.0 2.0 0.00 0.00 0.00 44 1010.9
20260505025621 55 235 1.0 3.0 0.00 0.00 0.00 42 1011.0
20260505025120 56 289 2.0 2.0 0.00 0.00 0.00 44 1010.8
20260505024617 56 253 1.0 2.0 0.00 0.00 0.00 40 1010.9
20260505024114 57 250 0.0 2.0 0.00 0.00 0.00 42 1010.9
20260505023611 57 257 4.0 5.0 0.00 0.00 0.00 39 1010.8
20260505023108 57 271 2.0 4.0 0.00 0.00 0.00 38 1010.6
20260505022606 57 244 0.0 2.0 0.00 0.00 0.00 40 1010.6
20260505022103 58 274 0.0 3.0 0.00 0.00 0.00 38 1010.6
20260505021559 58 303 4.0 4.0 0.00 0.00 0.00 38 1010.5
20260505021056 58 276 0.0 3.0 0.00 0.00 0.00 37 1010.5
20260505020556 59 274 2.0 3.0 0.00 0.00 0.00 37 1010.3
20260505020053 59 343 1.0 4.0 0.00 0.00 0.00 37 1010.5
20260505015550 60 303 2.0 3.0 0.00 0.00 0.00 36 1010.1
20260505015047 61 339 3.0 4.0 0.00 0.00 0.00 31 1010.1
20260505014544 62 312 2.0 3.0 0.00 0.00 0.00 32 1010.0
20260505014041 62 318 2.0 3.0 0.00 0.00 0.00 32 1009.7
20260505013538 63 292 4.0 4.0 0.00 0.00 0.00 30 1009.8
20260505013035 64 290 2.0 4.0 0.00 0.00 0.00 29 1009.8
20260505012533 64 289 0.0 3.0 0.00 0.00 0.00 32 1009.7
20260505012030 64 248 3.0 3.0 0.00 0.00 0.00 31 1009.9
20260505011525 64 308 0.0 6.0 0.00 0.00 0.00 29 1010.0
20260505011023 65 300 2.0 4.0 0.00 0.00 0.00 28 1009.9
20260505010518 65 252 3.0 3.0 0.00 0.00 0.00 27 1009.9
20260505010015 65 280 1.0 3.0 0.00 0.00 0.00 27 1010.0
20260505005511 66 297 3.0 4.0 0.00 0.00 0.00 26 1009.9
20260505005009 66 247 3.0 3.0 0.00 0.00 0.00 27 1009.9
20260505004506 66 298 2.0 3.0 0.00 0.00 0.00 25 1010.1
20260505004003 66 256 3.0 3.0 0.00 0.00 0.00 26 1010.0
20260505003500 66 316 2.0 4.0 0.00 0.00 0.00 30 1009.9
20260505002956 66 320 3.0 4.0 0.00 0.00 0.00 28 1010.3
20260505002452 65 281 1.0 2.0 0.00 0.00 0.00 32 1010.0
20260505001951 64 253 1.0 2.0 0.00 0.00 0.00 29 1010.3
20260505001448 63 238 2.0 3.0 0.00 0.00 0.00 29 1010.1
20260505000945 63 274 2.0 2.0 0.00 0.00 0.00 31 1010.3
20260505000443 63 254 2.0 3.0 0.00 0.00 0.00 29 1010.4
20260504235939 64 304 2.0 5.0 0.00 0.00 0.00 32 1010.1
20260504235437 64 271 0.0 2.0 0.00 0.00 0.00 29 1010.1
20260504234933 65 279 2.0 3.0 0.00 0.00 0.00 28 1010.1
20260504234430 65 297 0.0 2.0 0.00 0.00 0.00 30 1010.4
20260504233927 64 258 2.0 4.0 0.00 0.00 0.00 29 1010.4
20260504233422 65 261 2.0 3.0 0.00 0.00 0.00 28 1010.5
20260504232920 63 297 2.0 2.0 0.00 0.00 0.00 29 1010.9
20260504232417 64 305 2.0 3.0 0.00 0.00 0.00 30 1010.4
20260504231914 63 264 1.0 1.0 0.00 0.00 0.00 34 1010.6
20260504231410 63 265 2.0 2.0 0.00 0.00 0.00 31 1010.5
20260504230906 63 269 1.0 4.0 0.00 0.00 0.00 30 1010.6
20260504230404 63 254 3.0 4.0 0.00 0.00 0.00 29 1010.8
20260504225902 63 251 5.0 6.0 0.00 0.00 0.00 31 1010.8
20260504225358 64 260 2.0 5.0 0.00 0.00 0.00 29 1010.6
20260504224856 66 256 1.0 4.0 0.00 0.00 0.00 28 1010.6
20260504224352 65 248 3.0 4.0 0.00 0.00 0.00 31 1010.5
20260504223849 64 255 3.0 5.0 0.00 0.00 0.00 30 1010.9
20260504223345 65 244 4.0 5.0 0.00 0.00 0.00 30 1010.8
20260504222841 65 234 3.0 4.0 0.00 0.00 0.00 32 1011.0
20260504222338 65 296 3.0 4.0 0.00 0.00 0.00 29 1011.1
20260504221837 65 232 0.0 3.0 0.00 0.00 0.00 31 1011.4
20260504221333 66 252 4.0 4.0 0.00 0.00 0.00 31 1011.1
20260504220830 64 271 2.0 2.0 0.00 0.00 0.00 31 1011.5
20260504220327 64 265 3.0 6.0 0.00 0.00 0.00 33 1011.6
20260504215824 64 249 5.0 6.0 0.00 0.00 0.00 30 1012.0
20260504215321 65 248 0.0 4.0 0.00 0.00 0.00 30 1011.8
20260504214817 65 279 0.0 2.0 0.00 0.00 0.00 31 1012.1
20260504214314 64 180 2.0 6.0 0.00 0.00 0.00 29 1012.0
20260504213810 66 254 4.0 6.0 0.00 0.00 0.00 32 1012.1
20260504213306 64 263 3.0 4.0 0.00 0.00 0.00 31 1012.3
20260504212804 63 10 1.0 4.0 0.00 0.00 0.00 32 1012.2
20260504212300 62 242 2.0 5.0 0.00 0.00 0.00 33 1012.2
20260504211758 61 311 2.0 3.0 0.00 0.00 0.00 37 1012.2
20260504211253 59 247 2.0 3.0 0.00 0.00 0.00 39 1012.5
20260504210751 58 224 2.0 2.0 0.00 0.00 0.00 42 1012.7
20260504210248 57 234 1.0 2.0 0.00 0.00 0.00 45 1012.9
20260504205745 57 315 0.0 5.0 0.00 0.00 0.00 44 1013.4
20260504205243 59 188 2.0 5.0 0.00 0.00 0.00 41 1013.7
20260504204741 60 301 1.0 6.0 0.00 0.00 0.00 35 1013.3
20260504204239 62 231 3.0 5.0 0.00 0.00 0.00 32 1012.7
20260504203738 63 275 2.0 5.0 0.00 0.00 0.00 32 1012.5
20260504203235 65 300 3.0 8.0 0.00 0.00 0.00 30 1012.0
20260504202735 65 265 4.0 7.0 0.00 0.00 0.00 30 1012.1
20260504202232 65 236 3.0 7.0 0.00 0.00 0.00 28 1012.0
20260504201729 65 73 2.0 5.0 0.00 0.00 0.00 27 1012.2
20260504201227 65 310 2.0 3.0 0.00 0.00 0.00 31 1012.2
20260504200724 64 315 2.0 4.0 0.00 0.00 0.00 31 1012.1
20260504200220 66 294 0.0 2.0 0.00 0.00 0.00 27 1011.8
20260504195717 66 285 2.0 3.0 0.00 0.00 0.00 27 1012.0
20260504195213 68 345 2.0 4.0 0.00 0.00 0.00 25 1011.8
20260504194710 66 240 4.0 4.0 0.00 0.00 0.00 28 1012.1
20260504194206 62 247 3.0 3.0 0.00 0.00 0.00 27 1012.5
20260504193702 62 286 2.0 4.0 0.00 0.00 0.00 28 1012.5
20260504193200 63 266 1.0 6.0 0.00 0.00 0.00 31 1012.7
20260504192658 63 246 1.0 3.0 0.00 0.00 0.00 32 1012.7
20260504192156 64 244 2.0 3.0 0.00 0.00 0.00 29 1012.3
20260504191654 63 253 2.0 4.0 0.00 0.00 0.00 31 1012.5
20260504191150 63 258 2.0 2.0 0.00 0.00 0.00 31 1012.5
20260504190646 63 274 3.0 4.0 0.00 0.00 0.00 30 1012.7
20260504190143 63 282 2.0 2.0 0.00 0.00 0.00 30 1012.8
20260504185639 63 256 5.0 5.0 0.00 0.00 0.00 31 1012.7
20260504185136 63 256 1.0 2.0 0.00 0.00 0.00 31 1012.8
20260504184632 64 305 3.0 4.0 0.00 0.00 0.00 32 1012.7
20260504184127 64 265 3.0 3.0 0.00 0.00 0.00 32 1012.7
20260504183624 64 305 3.0 4.0 0.00 0.00 0.00 32 1012.9
20260504183122 64 323 3.0 3.0 0.00 0.00 0.00 32 1012.9
20260504182620 63 301 2.0 4.0 0.00 0.00 0.00 30 1013.2
20260504182117 63 287 2.0 4.0 0.00 0.00 0.00 31 1013.3
20260504181614 63 259 2.0 3.0 0.00 0.00 0.00 31 1013.2
20260504181111 63 266 4.0 4.0 0.00 0.00 0.00 30 1013.3
20260504180610 62 272 4.0 6.0 0.00 0.00 0.00 31 1013.3
20260504180109 62 275 2.0 4.0 0.00 0.00 0.00 31 1013.5
20260504175606 62 247 4.0 4.0 0.00 0.00 0.00 34 1013.4
20260504175102 62 252 3.0 4.0 0.00 0.00 0.00 32 1013.5
20260504174601 61 273 2.0 4.0 0.00 0.00 0.00 32 1013.3
20260504174057 61 288 3.0 4.0 0.00 0.00 0.00 32 1013.3
20260504173554 60 266 2.0 2.0 0.00 0.00 0.00 34 1013.3
20260504173052 61 251 3.0 6.0 0.00 0.00 0.00 32 1013.4
20260504172547 60 280 3.0 4.0 0.00 0.00 0.00 33 1013.7
20260504172044 60 259 3.0 4.0 0.00 0.00 0.00 34 1013.7
20260504171541 59 238 4.0 5.0 0.00 0.00 0.00 39 1013.8
20260504171038 58 237 3.0 4.0 0.00 0.00 0.00 38 1014.0
20260504170534 58 275 3.0 4.0 0.00 0.00 0.00 43 1013.9
20260504150918 45 263 3.0 3.0 0.00 0.00 0.00 57 1014.4
20260504150414 44 238 2.0 3.0 0.00 0.00 0.00 57 1014.5
20260504140835 38 287 0.0 2.0 0.00 0.00 0.00 70 1014.8
20260504140331 38 302 1.0 2.0 0.00 0.00 0.00 72 1014.6
20260504130759 37 342 0.0 3.0 0.00 0.00 0.00 71 1014.5
20260504130255 37 289 2.0 4.0 0.00 0.00 0.00 70 1014.4
20260504120219 38 238 1.0 3.0 0.00 0.00 0.00 68 1014.3
20260504110647 40 321 2.0 3.0 0.00 0.00 0.00 63 1014.6
20260504110143 41 327 1.0 2.0 0.00 0.00 0.00 64 1014.6
20260504100609 41 281 1.0 2.0 0.00 0.00 0.00 62 1014.8
20260504100107 41 262 1.0 2.0 0.00 0.00 0.00 61 1014.6
20260504082002 44 262 1.0 1.0 0.00 0.00 0.00 57 1015.0
20260504081500 44 280 1.0 1.0 0.00 0.00 0.00 56 1015.0
20260504080955 44 273 1.0 1.0 0.00 0.00 0.00 55 1015.0
20260504080452 44 306 0.0 1.0 0.00 0.00 0.00 56 1015.1